Pocatello, ID

5:16 AM MDT on June 28, 2017 (GMT -0600)
Pocatello Regional

Weather History for KPIH - February, 2013

Change the Weather History Date:

Saturday, February 23, 2013

  Actual Average Record
Temperature  
Mean Temperature 26 °F 31 °F  
Max Temperature 32 °F 40 °F 58 °F (1995)
Min Temperature 19 °F 21 °F -5 °F (1955)
Degree Days  
Heating Degree Days 39 34  
Month to date heating degree days 785 861  
Since 1 July heating degree days 4893 5108  
Cooling Degree Days 0 0  
Month to date cooling degree days 0 0  
Year to date cooling degree days 0 0  
Moisture  
Dew Point 21 °F    
Average Humidity 81    
Maximum Humidity 92    
Minimum Humidity 69    
Precipitation  
Precipitation 0.18 in 0.04 in 0.33 in (2017)
Month to date precipitation 0.43 0.78  
Year to date precipitation 1.00 1.77  
Snow  
Snow 1.80 in - - ()
Month to date snowfall 6.2  
Since 1 July snowfall 32.8  
Snow Depth 0.00 in    
Sea Level Pressure  
Sea Level Pressure 29.87 in    
Wind  
Wind Speed 18 mph (SW)    
Max Wind Speed 37 mph    
Max Gust Speed 47 mph    
Visibility 6 miles    
Events Fog , Snow    
T = Trace of Precipitation, MM = Missing Value Source: NWS Daily Summary

Daily Weather History Graph

Daily Weather History Graph

Search for Another Location

Airport or City:

Trip Planner

Search our weather history database for the weather conditions in past years. The results will help you decide how hot, cold, wet, or windy it might be!

Date:

Astronomy

Feb. 23, 2013 Rise Set
Actual Time 7:15 AM MST 6:12 PM MST
Civil Twilight 6:46 AM MST 6:41 PM MST
Nautical Twilight 6:13 AM MST 7:14 PM MST
Astronomical Twilight 5:41 AM MST 7:47 PM MST
Moon 4:25 PM MST (2/23) 5:42 AM MST (2/23)
Length of Visible Light 11h 54m
Length of Day
10h 57m
Waxing Gibbous, 95% of the Moon is Illuminated
Feb 23
Waxing Gibbous
Feb 25
Full
Mar 4
Last Quarter
Mar 11
New
Mar 19
First Quarter

Hourly Weather History & Observations

Time (MST) Temp. Windchill Dew Point Humidity Pressure Visibility Wind Dir Wind Speed Gust Speed Precip Events Conditions
12:40 AM 32.0 °F 19.5 °F 21.2 °F 64% 29.88 in 10.0 mi South 21.9 mph 27.6 mph N/A   Overcast
12:53 AM 30.9 °F 17.5 °F 21.9 °F 69% 29.92 in 10.0 mi South 24.2 mph 31.1 mph N/A   Overcast
1:53 AM 30.2 °F 16.5 °F 21.2 °F 69% 29.82 in 10.0 mi South 24.2 mph 35.7 mph N/A   Overcast
2:53 AM 30.9 °F 16.9 °F 21.0 °F 67% 29.84 in 10.0 mi South 26.5 mph 33.4 mph N/A   Overcast
3:53 AM 30.9 °F 17.2 °F 21.0 °F 67% 29.78 in 10.0 mi South 25.3 mph 34.5 mph N/A   Overcast
4:53 AM 30.0 °F 16.0 °F 21.9 °F 72% 29.72 in 10.0 mi South 25.3 mph 40.3 mph 0.00 in   Overcast
5:53 AM 32.0 °F 17.9 °F 21.0 °F 64% 29.68 in 9.0 mi South 28.8 mph 40.3 mph 0.00 in Snow Light Snow
6:17 AM 30.2 °F 15.9 °F 24.8 °F 80% 29.65 in 0.8 mi South 26.5 mph 38.0 mph 0.00 in Snow Light Snow
6:53 AM 28.0 °F 12.5 °F 25.0 °F 88% 29.73 in 0.5 mi South 28.8 mph 41.4 mph 0.00 in Fog , Snow Snow
7:51 AM 28.4 °F 14.4 °F 24.8 °F 86% 29.70 in 2.0 mi SSW 23.0 mph 33.4 mph 0.02 in Snow Light Snow
7:53 AM 28.9 °F 14.5 °F 25.0 °F 85% 29.76 in 2.0 mi SSW 25.3 mph 35.7 mph 0.02 in Snow Light Snow
8:53 AM 28.0 °F 13.0 °F 24.1 °F 85% 29.79 in 2.0 mi SW 26.5 mph 38.0 mph 0.00 in Snow Light Snow
9:16 AM 28.4 °F 13.5 °F 24.8 °F 86% 29.75 in 5.0 mi SW 26.5 mph 34.5 mph 0.00 in Snow Light Snow
9:53 AM 28.0 °F 11.1 °F 23.0 °F 81% 29.82 in 2.5 mi WSW 35.7 mph 41.4 mph 0.00 in Snow Light Snow
10:53 AM 26.1 °F 9.8 °F 21.9 °F 84% 29.85 in 1.2 mi WSW 28.8 mph 38.0 mph 0.00 in Snow Light Snow
11:18 AM 26.6 °F 11.7 °F 23.0 °F 86% 29.78 in 0.2 mi WSW 24.2 mph - 0.02 in Fog , Snow Heavy Snow
11:53 AM 26.1 °F 12.0 °F 23.0 °F 88% 29.87 in 0.2 mi WSW 20.7 mph - 0.05 in Fog , Snow Heavy Snow
12:53 PM 26.1 °F 14.0 °F 24.1 °F 92% 29.87 in 0.2 mi WSW 15.0 mph - 0.04 in Fog , Snow Snow
1:53 PM 27.0 °F 13.5 °F 24.1 °F 89% 29.88 in 0.5 mi WSW 19.6 mph - 0.03 in Fog , Snow Snow
2:09 PM 26.6 °F 14.3 °F 24.8 °F 93% 29.81 in 1.0 mi WSW 16.1 mph - 0.00 in Snow Light Snow
2:53 PM 27.0 °F 15.2 °F 24.1 °F 89% 29.91 in 1.5 mi West 15.0 mph - 0.00 in Snow Light Snow
3:17 PM 26.6 °F 15.7 °F 24.8 °F 93% 29.85 in 0.5 mi West 12.7 mph - 0.01 in Fog , Snow Snow
3:53 PM 26.1 °F 14.5 °F 23.0 °F 88% 29.94 in 0.8 mi West 13.8 mph - 0.03 in Snow Light Snow
4:53 PM 26.1 °F 16.8 °F 23.0 °F 88% 29.96 in 10.0 mi SW 9.2 mph - 0.01 in   Mostly Cloudy
5:53 PM 25.0 °F 14.8 °F 19.9 °F 81% 29.98 in 10.0 mi South 10.4 mph - N/A   Mostly Cloudy
6:53 PM 21.0 °F 9.9 °F 16.0 °F 81% 30.02 in 10.0 mi South 10.4 mph - N/A   Scattered Clouds
7:53 PM 21.9 °F 11.7 °F 16.0 °F 78% 30.04 in 10.0 mi SSW 9.2 mph - N/A   Overcast
8:53 PM 24.1 °F 15.2 °F 17.1 °F 75% 30.06 in 10.0 mi SSW 8.1 mph - N/A   Overcast
9:53 PM 21.9 °F 14.5 °F 15.1 °F 75% 30.08 in 10.0 mi SSW 5.8 mph - N/A   Overcast
10:53 PM 19.0 °F - 15.1 °F 85% 30.11 in 10.0 mi Calm Calm - N/A   Overcast
11:53 PM 24.1 °F 17.0 °F 14.0 °F 65% 30.11 in 10.0 mi NNW 5.8 mph - N/A   Overcast